IQ7ET-13 Weather Reports


Display with metric or nautical units.
time (UTC)temp
F
wind
direction
speed
MPH
gust
MPH
rain 1hr
in
rain 24hr
in
rain mn
in
humidity
%
barometer
mb
20260906043021 78 314 8.0 13.0 0.00 0.00 0.00 44 1019.7
20260906041558 78 291 9.0 13.0 0.00 0.00 0.00 45 1019.7
20260906040041 78 314 9.0 13.0 0.00 0.00 0.00 47 1019.7
20260906034523 77 281 8.0 13.0 0.00 0.00 0.00 47 1019.5
20260906033048 77 297 7.0 11.0 0.00 0.00 0.00 48 1019.6
20260906031529 77 289 7.0 11.0 0.00 0.00 0.00 48 1019.5
20260906030007 77 297 6.0 9.0 0.00 0.00 0.00 49 1019.5
20260906024542 77 278 5.0 9.0 0.00 0.00 0.00 51 1019.5
20260906023022 77 291 5.0 9.0 0.00 0.00 0.00 52 1019.6
20260906021559 78 298 7.0 14.0 0.00 0.00 0.00 49 1019.7
20260906020037 78 274 9.0 14.0 0.00 0.00 0.00 50 1019.6
20260906014520 78 275 8.0 12.0 0.00 0.00 0.00 53 1019.7
20260906013050 78 280 6.0 11.0 0.00 0.00 0.00 53 1019.7
20260906011526 79 273 6.0 12.0 0.00 0.00 0.00 52 1019.7
20260906010006 79 277 6.0 10.0 0.00 0.00 0.00 51 1019.8
20260906004546 79 257 6.0 10.0 0.00 0.00 0.00 52 1019.8
20260906003022 79 277 6.0 9.0 0.00 0.00 0.00 52 1019.8
20260906001603 80 276 6.0 9.0 0.00 0.00 0.00 50 1019.7
20260906001502 80 270 6.0 9.0 0.00 0.00 0.00 50 1019.7
20260906000039 81 270 4.0 7.0 0.00 0.00 0.00 51 1019.9
20260905234516 81 264 4.0 8.0 0.00 0.00 0.00 52 1019.9
20260905233105 80 252 2.0 4.0 0.00 0.00 0.00 54 1020.0
20260905231530 81 231 0.0 5.0 0.00 0.00 0.00 62 1020.0
20260905230057 81 228 1.0 4.0 0.00 0.00 0.00 61 1020.0
20260905230003 81 225 1.0 4.0 0.00 0.00 0.00 60 1020.1
20260905224552 81 221 2.0 4.0 0.00 0.00 0.00 60 1020.2
20260905223009 81 217 1.0 4.0 0.00 0.00 0.00 56 1020.2
20260905221543 82 215 2.0 5.0 0.00 0.00 0.00 42 1020.3
20260905220024 81 212 1.0 4.0 0.00 0.00 0.00 42 1020.1
20260905214556 81 169 1.0 6.0 0.00 0.00 0.00 42 1020.0
20260905214501 81 160 1.0 6.0 0.00 0.00 0.00 42 1020.1
20260905213036 81 174 0.0 5.0 0.00 0.00 0.00 42 1020.1
20260905211517 81 190 2.0 5.0 0.00 0.00 0.00 43 1020.1
20260905210050 81 135 3.0 5.0 0.00 0.00 0.00 43 1020.1
20260905204529 82 167 1.0 6.0 0.00 0.00 0.00 42 1020.3
20260905203005 81 160 2.0 6.0 0.00 0.00 0.00 43 1020.4
20260905201544 81 163 0.0 3.0 0.00 0.00 0.00 42 1020.4
20260905200016 81 113 0.0 5.0 0.00 0.00 0.00 42 1020.5
20260905194554 81 147 2.0 5.0 0.00 0.00 0.00 41 1020.5
20260905193033 81 171 0.0 4.0 0.00 0.00 0.00 42 1020.6
20260905191510 81 170 0.0 3.0 0.00 0.00 0.00 43 1020.4
20260905190100 81 165 0.0 4.0 0.00 0.00 0.00 54 1020.3
20260905184520 81 189 1.0 5.0 0.00 0.00 0.00 51 1020.1
20260905183054 81 162 1.0 4.0 0.00 0.00 0.00 49 1019.9
20260905181528 82 124 2.0 5.0 0.00 0.00 0.00 46 1019.8
20260905180011 82 172 1.0 5.0 0.00 0.00 0.00 45 1019.7
20260905174553 82 177 1.0 5.0 0.00 0.00 0.00 48 1019.5
20260905173030 83 143 0.0 3.0 0.00 0.00 0.00 49 1019.4
20260905171502 83 142 0.0 4.0 0.00 0.00 0.00 48 1019.4
20260905170037 84 179 0.0 3.0 0.00 0.00 0.00 50 1019.3
20260905164517 85 103 1.0 5.0 0.00 0.00 0.00 48 1019.3
20260905163051 86 165 0.0 5.0 0.00 0.00 0.00 46 1019.4
20260905161531 87 80 0.0 7.0 0.00 0.00 0.00 46 1019.3
20260905160007 87 176 1.0 7.0 0.00 0.00 0.00 44 1019.2
20260905154545 88 134 2.0 7.0 0.00 0.00 0.00 45 1019.3
20260905153024 88 53 3.0 9.0 0.00 0.00 0.00 42 1019.2
20260905151559 89 51 4.0 11.0 0.00 0.00 0.00 41 1019.1
20260905151501 89 103 2.0 11.0 0.00 0.00 0.00 40 1019.3
20260905150038 90 138 3.0 9.0 0.00 0.00 0.00 36 1019.3
20260905144517 92 181 0.0 12.0 0.00 0.00 0.00 30 1019.4
20260905143055 92 175 3.0 11.0 0.00 0.00 0.00 27 1019.2
20260905141531 92 179 2.0 9.0 0.00 0.00 0.00 27 1019.4
20260905140010 92 106 5.0 9.0 0.00 0.00 0.00 26 1019.4
20260905134544 92 162 7.0 14.0 0.00 0.00 0.00 28 1019.4
20260905133024 92 186 2.0 11.0 0.00 0.00 0.00 29 1019.6
20260905131508 92 168 3.0 13.0 0.00 0.00 0.00 31 1019.7
20260905130039 92 105 6.0 12.0 0.00 0.00 0.00 32 1019.7
20260905124535 92 124 4.0 13.0 0.00 0.00 0.00 32 1020.0
20260905123059 92 236 4.0 13.0 0.00 0.00 0.00 33 1020.1
20260905121536 92 72 5.0 11.0 0.00 0.00 0.00 33 1020.2
20260905120010 92 164 5.0 13.0 0.00 0.00 0.00 32 1020.3
20260905114549 92 85 4.0 12.0 0.00 0.00 0.00 30 1020.4
20260905113028 92 134 6.0 14.0 0.00 0.00 0.00 28 1020.6
20260905111504 92 169 5.0 10.0 0.00 0.00 0.00 29 1020.5
20260905110043 91 184 1.0 10.0 0.00 0.00 0.00 29 1020.6
20260905104518 91 99 1.0 9.0 0.00 0.00 0.00 28 1020.7
20260905103056 90 179 2.0 8.0 0.00 0.00 0.00 29 1020.9
20260905101530 90 155 4.0 9.0 0.00 0.00 0.00 30 1020.9
20260905100007 90 173 3.0 7.0 0.00 0.00 0.00 30 1021.1
20260905094540 90 157 4.0 10.0 0.00 0.00 0.00 30 1021.2
20260905093020 89 146 2.0 8.0 0.00 0.00 0.00 30 1021.2
20260905091616 89 158 3.0 9.0 0.00 0.00 0.00 30 1021.3
20260905090036 88 158 2.0 7.0 0.00 0.00 0.00 30 1021.3
20260905084541 88 184 4.0 7.0 0.00 0.00 0.00 30 1021.3
20260905083049 88 37 2.0 6.0 0.00 0.00 0.00 31 1021.2
20260905081529 87 203 0.0 3.0 0.00 0.00 0.00 32 1021.2
20260905080006 84 251 0.0 2.0 0.00 0.00 0.00 35 1021.1
20260905074544 82 269 1.0 5.0 0.00 0.00 0.00 37 1021.1
20260905073023 81 273 2.0 6.0 0.00 0.00 0.00 37 1020.9
20260905071601 80 269 3.0 6.0 0.00 0.00 0.00 37 1020.8
20260905070037 80 278 3.0 5.0 0.00 0.00 0.00 34 1020.7
20260905064513 79 269 1.0 6.0 0.00 0.00 0.00 36 1020.6
20260905063054 78 259 4.0 7.0 0.00 0.00 0.00 36 1020.6
20260905061526 77 265 3.0 6.0 0.00 0.00 0.00 37 1020.8
20260905060007 79 285 3.0 5.0 0.00 0.00 0.00 38 1020.8
20260905054542 79 296 2.0 6.0 0.00 0.00 0.00 38 1020.8
20260905053023 79 292 4.0 6.0 0.00 0.00 0.00 38 1020.7
20260905051600 78 300 4.0 6.0 0.00 0.00 0.00 39 1020.7
20260905051504 79 316 4.0 6.0 0.00 0.00 0.00 39 1020.7
20260905050036 78 279 3.0 6.0 0.00 0.00 0.00 40 1020.6
20260905044518 78 300 3.0 6.0 0.00 0.00 0.00 40 1020.5